Time,TemperatureF,DewpointF,PressureIn,WindDirection,WindDirectionDegrees,WindSpeedMPH,WindSpeedGustMPH,Humidity,HourlyPrecipIn,Conditions,Clouds,dailyrainin,SoftwareType,DateUTC
2013-05-17 00:02:00,43.0,43.0,-100.00,NNW,330,6.0,12.0,99,-99.99,,,-99.99,,2013-05-17 07:02:00,
2013-05-17 00:11:00,44.0,43.0,-100.00,NW,325,10.0,15.0,99,-99.99,,,-99.99,,2013-05-17 07:11:00,
2013-05-17 00:21:00,44.0,44.0,-100.00,NNW,335,11.0,19.0,99,-99.99,,,-99.99,,2013-05-17 07:21:00,
2013-05-17 00:32:00,44.0,44.0,-100.00,NNW,335,11.0,19.0,99,-99.99,,,-99.99,,2013-05-17 07:32:00,
2013-05-17 00:43:00,44.0,44.0,-100.00,NNW,330,10.0,18.0,98,-99.99,,,-99.99,,2013-05-17 07:43:00,
2013-05-17 00:53:00,44.0,43.0,-100.00,NNW,340,9.0,14.0,99,-99.99,,,-99.99,,2013-05-17 07:53:00,
2013-05-17 01:02:00,44.0,43.0,-100.00,NNW,340,9.0,14.0,99,-99.99,,,-99.99,,2013-05-17 08:02:00,
2013-05-17 01:12:00,43.0,43.0,-100.00,NW,315,7.0,12.0,99,-99.99,,,-99.99,,2013-05-17 08:12:00,
2013-05-17 01:22:00,43.0,42.0,-100.00,NNW,335,6.0,14.0,99,-99.99,,,-99.99,,2013-05-17 08:22:00,
2013-05-17 01:33:00,43.0,42.0,-100.00,NNW,335,6.0,14.0,99,-99.99,,,-99.99,,2013-05-17 08:33:00,
2013-05-17 01:42:00,43.0,42.0,-100.00,NNW,335,7.0,12.0,99,-99.99,,,-99.99,,2013-05-17 08:42:00,
2013-05-17 01:51:00,43.0,42.0,-100.00,NNW,335,10.0,16.0,99,-99.99,,,-99.99,,2013-05-17 08:51:00,
2013-05-17 02:02:00,43.0,42.0,-100.00,NNW,335,10.0,16.0,99,-99.99,,,-99.99,,2013-05-17 09:02:00,
2013-05-17 02:12:00,43.0,43.0,-100.00,NNW,335,11.0,16.0,99,-99.99,,,-99.99,,2013-05-17 09:12:00,
2013-05-17 02:22:00,43.0,43.0,-100.00,NNW,335,11.0,17.0,99,-99.99,,,-99.99,,2013-05-17 09:22:00,
2013-05-17 02:33:00,43.0,43.0,-100.00,NNW,335,11.0,17.0,99,-99.99,,,-99.99,,2013-05-17 09:33:00,
2013-05-17 02:42:00,43.0,42.0,-100.00,NW,325,10.0,16.0,99,-99.99,,,-99.99,,2013-05-17 09:42:00,
2013-05-17 02:53:00,42.0,42.0,-100.00,NW,315,9.0,17.0,99,-99.99,,,-99.99,,2013-05-17 09:53:00,
2013-05-17 03:03:00,42.0,42.0,-100.00,NW,315,9.0,17.0,99,-99.99,,,-99.99,,2013-05-17 10:03:00,
2013-05-17 03:12:00,43.0,42.0,-100.00,NNW,330,9.0,16.0,99,-99.99,,,-99.99,,2013-05-17 10:12:00,
2013-05-17 03:23:00,43.0,42.0,-100.00,WNW,300,10.0,16.0,99,-99.99,,,-99.99,,2013-05-17 10:23:00,
2013-05-17 03:32:00,43.0,42.0,-100.00,WNW,300,10.0,16.0,99,-99.99,,,-99.99,,2013-05-17 10:32:00,
2013-05-17 03:42:00,43.0,43.0,-100.00,NW,320,10.0,16.0,99,-99.99,,,-99.99,,2013-05-17 10:42:00,
2013-05-17 03:53:00,42.0,42.0,-100.00,NW,315,10.0,16.0,99,-99.99,,,-99.99,,2013-05-17 10:53:00,
2013-05-17 04:02:00,42.0,42.0,-100.00,NW,315,10.0,16.0,99,-99.99,,,-99.99,,2013-05-17 11:02:00,
2013-05-17 04:12:00,42.0,42.0,-100.00,NW,325,8.0,14.0,99,-99.99,,,-99.99,,2013-05-17 11:12:00,
2013-05-17 04:22:00,42.0,42.0,-100.00,NW,320,6.0,14.0,99,-99.99,,,-99.99,,2013-05-17 11:22:00,
2013-05-17 04:34:00,42.0,42.0,-100.00,NW,320,6.0,14.0,99,-99.99,,,-99.99,,2013-05-17 11:34:00,
2013-05-17 04:42:00,41.0,41.0,-100.00,NW,315,6.0,12.0,99,-99.99,,,-99.99,,2013-05-17 11:42:00,
2013-05-17 04:52:00,40.0,40.0,-100.00,NW,315,6.0,13.0,99,-99.99,,,-99.99,,2013-05-17 11:52:00,
2013-05-17 05:02:00,40.0,40.0,-100.00,NW,315,6.0,13.0,99,-99.99,,,-99.99,,2013-05-17 12:02:00,
2013-05-17 05:12:00,40.0,39.0,-100.00,NW,310,6.0,10.0,99,-99.99,,,-99.99,,2013-05-17 12:12:00,
2013-05-17 05:23:00,40.0,39.0,-100.00,NNW,330,9.0,13.0,99,-99.99,,,-99.99,,2013-05-17 12:23:00,
2013-05-17 05:32:00,40.0,39.0,-100.00,NNW,330,9.0,13.0,99,-99.99,,,-99.99,,2013-05-17 12:32:00,
2013-05-17 05:43:00,40.0,40.0,-100.00,NNW,330,6.0,15.0,99,-99.99,,,-99.99,,2013-05-17 12:43:00,
2013-05-17 05:53:00,40.0,40.0,-100.00,NNW,345,6.0,12.0,99,-99.99,,,-99.99,,2013-05-17 12:53:00,
2013-05-17 06:03:00,40.0,40.0,-100.00,NNW,345,6.0,12.0,99,-99.99,,,-99.99,,2013-05-17 13:03:00,
2013-05-17 06:12:00,39.0,39.0,-100.00,WNW,295,4.0,9.0,99,-99.99,,,-99.99,,2013-05-17 13:12:00,
2013-05-17 06:23:00,39.0,38.0,-100.00,WNW,300,4.0,7.0,99,-99.99,,,-99.99,,2013-05-17 13:23:00,
2013-05-17 06:33:00,39.0,38.0,-100.00,WNW,300,4.0,7.0,99,-99.99,,,-99.99,,2013-05-17 13:33:00,
2013-05-17 06:42:00,38.0,38.0,-100.00,NW,310,4.0,9.0,99,-99.99,,,-99.99,,2013-05-17 13:42:00,
2013-05-17 06:52:00,38.0,38.0,-100.00,NW,310,4.0,9.0,99,-99.99,,,-99.99,,2013-05-17 13:52:00,
2013-05-17 07:02:00,38.0,38.0,-100.00,NW,310,4.0,9.0,99,-99.99,,,-99.99,,2013-05-17 14:02:00,
2013-05-17 07:13:00,40.0,40.0,-100.00,NNW,335,8.0,12.0,99,-99.99,,,-99.99,,2013-05-17 14:13:00,
2013-05-17 07:22:00,40.0,40.0,-100.00,NW,310,6.0,12.0,99,-99.99,,,-99.99,,2013-05-17 14:22:00,
2013-05-17 07:34:00,40.0,40.0,-100.00,NW,310,6.0,12.0,99,-99.99,,,-99.99,,2013-05-17 14:34:00,
2013-05-17 07:42:00,42.0,42.0,-100.00,NW,320,9.0,14.0,99,-99.99,,,-99.99,,2013-05-17 14:42:00,
2013-05-17 07:53:00,42.0,42.0,-100.00,NW,320,9.0,14.0,99,-99.99,,,-99.99,,2013-05-17 14:53:00,
2013-05-17 08:03:00,42.0,42.0,-100.00,NW,320,9.0,14.0,99,-99.99,,,-99.99,,2013-05-17 15:03:00,
2013-05-17 08:14:00,44.0,42.0,-100.00,NNW,340,8.0,15.0,93,-99.99,,,-99.99,,2013-05-17 15:14:00,
2013-05-17 08:25:00,45.0,42.0,-100.00,NNW,330,7.0,15.0,90,-99.99,,,-99.99,,2013-05-17 15:25:00,
2013-05-17 08:37:00,45.0,42.0,-100.00,NNW,330,7.0,15.0,90,-99.99,,,-99.99,,2013-05-17 15:37:00,
2013-05-17 08:47:00,45.0,42.0,-100.00,NW,325,7.0,14.0,87,-99.99,,,-99.99,,2013-05-17 15:47:00,
2013-05-17 08:56:00,45.0,42.0,-100.00,NW,325,4.0,12.0,87,-99.99,,,-99.99,,2013-05-17 15:56:00,
2013-05-17 09:07:00,45.0,42.0,-100.00,NW,325,4.0,12.0,87,-99.99,,,-99.99,,2013-05-17 16:07:00,
2013-05-17 09:13:00,46.0,41.0,-100.00,NNW,335,7.0,11.0,83,-99.99,,,-99.99,,2013-05-17 16:13:00,
2013-05-17 09:26:00,48.0,42.0,-100.00,NNW,340,6.0,12.0,80,-99.99,,,-99.99,,2013-05-17 16:26:00,
2013-05-17 09:37:00,48.0,42.0,-100.00,NNW,340,6.0,12.0,80,-99.99,,,-99.99,,2013-05-17 16:37:00,
2013-05-17 09:49:00,48.0,41.0,-100.00,NNW,340,5.0,11.0,78,-99.99,,,-99.99,,2013-05-17 16:49:00,
2013-05-17 09:56:00,51.0,42.0,-100.00,WNW,285,2.0,7.0,71,-99.99,,,-99.99,,2013-05-17 16:56:00,
2013-05-17 10:08:00,51.0,42.0,-100.00,WNW,285,2.0,7.0,71,-99.99,,,-99.99,,2013-05-17 17:08:00,
2013-05-17 10:18:00,51.0,41.0,-100.00,North,350,6.0,9.0,68,-99.99,,,-99.99,,2013-05-17 17:18:00,
2013-05-17 10:29:00,51.0,41.0,-100.00,West,280,4.0,7.0,68,-99.99,,,-99.99,,2013-05-17 17:29:00,
2013-05-17 10:40:00,51.0,-99.9,-100.00,West,280,4.0,7.0,68,-99.99,,,-99.99,,2013-05-17 17:40:00,
2013-05-17 10:49:00,49.0,41.0,-100.00,NW,305,4.0,6.0,73,-99.99,,,-99.99,,2013-05-17 17:49:00,
2013-05-17 11:00:00,53.0,42.0,-100.00,West,265,2.0,6.0,66,-99.99,,,-99.99,,2013-05-17 18:00:00,
2013-05-17 11:08:00,53.0,42.0,-100.00,West,265,2.0,6.0,66,-99.99,,,-99.99,,2013-05-17 18:08:00,
2013-05-17 11:20:00,54.0,39.0,-100.00,ESE,105,3.0,7.0,57,-99.99,,,-99.99,,2013-05-17 18:20:00,
2013-05-17 11:30:00,55.0,40.0,-100.00,ESE,120,4.0,10.0,57,-99.99,,,-99.99,,2013-05-17 18:30:00,
2013-05-17 11:40:00,55.0,-99.9,-100.00,ESE,120,4.0,10.0,57,-99.99,,,-99.99,,2013-05-17 18:40:00,
2013-05-17 11:50:00,-999.0,-99.9,-100.00,SE,125,4.0,9.0,54,-99.99,,,-99.99,,2013-05-17 18:50:00,
2013-05-17 12:00:00,56.0,39.0,-100.00,SE,135,3.0,6.0,51,-99.99,,,-99.99,,2013-05-17 19:00:00,
2013-05-17 12:10:00,56.0,39.0,-100.00,SE,135,3.0,6.0,51,-99.99,,,-99.99,,2013-05-17 19:10:00,
2013-05-17 12:20:00,59.0,40.0,-100.00,East,85,2.0,8.0,49,-99.99,,,-99.99,,2013-05-17 19:20:00,
2013-05-17 12:30:00,59.0,40.0,-100.00,SE,140,1.0,5.0,48,-99.99,,,-99.99,,2013-05-17 19:30:00,
2013-05-17 12:40:00,59.0,40.0,-100.00,SE,140,1.0,5.0,48,-99.99,,,-99.99,,2013-05-17 19:40:00,
2013-05-17 12:50:00,59.0,39.0,-100.00,ESE,115,1.0,5.0,47,-99.99,,,-99.99,,2013-05-17 19:50:00,
2013-05-17 13:00:00,60.0,-99.9,-100.00,SW,235,2.0,6.0,47,-99.99,,,-99.99,,2013-05-17 20:00:00,
2013-05-17 13:09:00,60.0,39.0,-100.00,SW,235,2.0,6.0,47,-99.99,,,-99.99,,2013-05-17 20:09:00,
2013-05-17 13:20:00,60.0,38.0,-100.00,ESE,110,2.0,15.0,44,-99.99,,,-99.99,,2013-05-17 20:20:00,
2013-05-17 13:30:00,63.0,41.0,-100.00,South,180,1.0,14.0,44,-99.99,,,-99.99,,2013-05-17 20:30:00,
2013-05-17 13:40:00,63.0,41.0,-100.00,South,180,1.0,14.0,44,-99.99,,,-99.99,,2013-05-17 20:40:00,
2013-05-17 13:49:00,62.0,39.0,-100.00,SW,230,1.0,11.0,42,-99.99,,,-99.99,,2013-05-17 20:49:00,
2013-05-17 13:58:00,61.0,38.0,-100.00,East,90,2.0,5.0,43,-99.99,,,-99.99,,2013-05-17 20:58:00,
2013-05-17 14:07:00,61.0,38.0,-100.00,East,90,2.0,5.0,43,-99.99,,,-99.99,,2013-05-17 21:07:00,
2013-05-17 14:16:00,63.0,40.0,-100.00,NNE,25,2.0,6.0,43,-99.99,,,-99.99,,2013-05-17 21:16:00,
2013-05-17 14:26:00,63.0,40.0,-100.00,ESE,120,2.0,9.0,42,-99.99,,,-99.99,,2013-05-17 21:26:00,
2013-05-17 14:39:00,63.0,40.0,-100.00,ESE,120,2.0,9.0,42,-99.99,,,-99.99,,2013-05-17 21:39:00,
2013-05-17 14:49:00,62.0,39.0,-100.00,South,180,2.0,7.0,43,-99.99,,,-99.99,,2013-05-17 21:49:00,
2013-05-17 14:57:00,63.0,40.0,-100.00,ESE,110,3.0,7.0,43,-99.99,,,-99.99,,2013-05-17 21:57:00,
2013-05-17 15:06:00,63.0,40.0,-100.00,ESE,110,3.0,7.0,43,-99.99,,,-99.99,,2013-05-17 22:06:00,
2013-05-17 15:17:00,65.0,41.0,-100.00,East,100,2.0,10.0,41,-99.99,,,-99.99,,2013-05-17 22:17:00,
2013-05-17 15:28:00,63.0,39.0,-100.00,East,95,2.0,10.0,41,-99.99,,,-99.99,,2013-05-17 22:28:00,
2013-05-17 15:38:00,63.0,39.0,-100.00,East,95,2.0,10.0,41,-99.99,,,-99.99,,2013-05-17 22:38:00,
2013-05-17 15:47:00,65.0,40.0,-100.00,WSW,255,1.0,11.0,41,-99.99,,,-99.99,,2013-05-17 22:47:00,
2013-05-17 15:54:00,65.0,40.0,-100.00,NE,45,1.0,6.0,39,-99.99,,,-99.99,,2013-05-17 22:54:00,
2013-05-17 16:04:00,65.0,40.0,-100.00,NE,45,1.0,6.0,39,-99.99,,,-99.99,,2013-05-17 23:04:00,
2013-05-17 16:13:00,64.0,40.0,-100.00,SE,145,2.0,7.0,42,-99.99,,,-99.99,,2013-05-17 23:13:00,
2013-05-17 16:23:00,62.0,39.0,-100.00,SE,140,1.0,9.0,42,-99.99,,,-99.99,,2013-05-17 23:23:00,
2013-05-17 16:37:00,62.0,39.0,-100.00,SE,140,1.0,9.0,42,-99.99,,,-99.99,,2013-05-17 23:37:00,
2013-05-17 16:47:00,62.0,39.0,-100.00,SE,145,2.0,6.0,43,-99.99,,,-99.99,,2013-05-17 23:47:00,
2013-05-17 16:54:00,62.0,40.0,-100.00,ESE,115,1.0,4.0,44,-99.99,,,-99.99,,2013-05-17 23:54:00,
2013-05-17 17:02:00,62.0,40.0,-100.00,ESE,115,1.0,4.0,44,-99.99,,,-99.99,,2013-05-18 00:02:00,
2013-05-17 17:14:00,62.0,40.0,-100.00,SE,130,4.0,9.0,45,-99.99,,,-99.99,,2013-05-18 00:14:00,
2013-05-17 17:21:00,62.0,40.0,-100.00,ESE,120,7.0,10.0,45,-99.99,,,-99.99,,2013-05-18 00:21:00,
2013-05-17 17:33:00,62.0,40.0,-100.00,ESE,120,7.0,10.0,45,-99.99,,,-99.99,,2013-05-18 00:33:00,
2013-05-17 17:44:00,61.0,40.0,-100.00,SSE,150,1.0,7.0,46,-99.99,,,-99.99,,2013-05-18 00:44:00,
2013-05-17 17:54:00,63.0,41.0,-100.00,SE,125,4.0,10.0,45,-99.99,,,-99.99,,2013-05-18 00:54:00,
2013-05-17 18:02:00,63.0,41.0,-100.00,SE,125,4.0,10.0,45,-99.99,,,-99.99,,2013-05-18 01:02:00,
2013-05-17 18:13:00,63.0,41.0,-100.00,SSE,165,2.0,14.0,45,-99.99,,,-99.99,,2013-05-18 01:13:00,
2013-05-17 18:24:00,63.0,42.0,-100.00,ESE,115,3.0,10.0,45,-99.99,,,-99.99,,2013-05-18 01:24:00,
2013-05-17 18:31:00,63.0,42.0,-100.00,ESE,115,3.0,10.0,45,-99.99,,,-99.99,,2013-05-18 01:31:00,
2013-05-17 18:42:00,63.0,41.0,-100.00,ESE,115,4.0,9.0,44,-99.99,,,-99.99,,2013-05-18 01:42:00,
2013-05-17 18:52:00,62.0,41.0,-100.00,SE,125,6.0,9.0,45,-99.99,,,-99.99,,2013-05-18 01:52:00,
2013-05-17 19:02:00,62.0,41.0,-100.00,SE,125,6.0,9.0,45,-99.99,,,-99.99,,2013-05-18 02:02:00,
2013-05-17 19:11:00,63.0,41.0,-100.00,NNW,340,2.0,9.0,45,-99.99,,,-99.99,,2013-05-18 02:11:00,
2013-05-17 19:22:00,62.0,41.0,-100.00,SSE,165,2.0,9.0,47,-99.99,,,-99.99,,2013-05-18 02:22:00,
2013-05-17 19:31:00,62.0,41.0,-100.00,SSE,165,2.0,9.0,47,-99.99,,,-99.99,,2013-05-18 02:31:00,
2013-05-17 19:42:00,59.0,40.0,-100.00,SE,130,2.0,9.0,49,-99.99,,,-99.99,,2013-05-18 02:42:00,
2013-05-17 19:53:00,59.0,40.0,-100.00,SE,130,4.0,9.0,49,-99.99,,,-99.99,,2013-05-18 02:53:00,
2013-05-17 20:02:00,59.0,40.0,-100.00,SE,130,4.0,9.0,49,-99.99,,,-99.99,,2013-05-18 03:02:00,
2013-05-17 20:12:00,59.0,41.0,-100.00,ESE,115,4.0,7.0,50,-99.99,,,-99.99,,2013-05-18 03:12:00,
2013-05-17 20:22:00,58.0,41.0,-100.00,East,90,2.0,4.0,53,-99.99,,,-99.99,,2013-05-18 03:22:00,
2013-05-17 20:32:00,58.0,41.0,-100.00,East,90,2.0,4.0,53,-99.99,,,-99.99,,2013-05-18 03:32:00,
2013-05-17 20:43:00,57.0,41.0,-100.00,North,0,2.0,4.0,55,-99.99,,,-99.99,,2013-05-18 03:43:00,
2013-05-17 20:53:00,55.0,41.0,-100.00,NNW,340,1.0,2.0,60,-99.99,,,-99.99,,2013-05-18 03:53:00,
2013-05-17 21:02:00,55.0,41.0,-100.00,NNW,340,1.0,2.0,60,-99.99,,,-99.99,,2013-05-18 04:02:00,
2013-05-17 21:12:00,53.0,39.0,-100.00,NW,315,6.0,12.0,59,-99.99,,,-99.99,,2013-05-18 04:12:00,
2013-05-17 21:23:00,53.0,38.0,-100.00,NNW,330,9.0,14.0,57,-99.99,,,-99.99,,2013-05-18 04:23:00,
2013-05-17 21:32:00,53.0,38.0,-100.00,NNW,330,9.0,14.0,57,-99.99,,,-99.99,,2013-05-18 04:32:00,
2013-05-17 21:42:00,53.0,37.0,-100.00,NNW,330,9.0,18.0,56,-99.99,,,-99.99,,2013-05-18 04:42:00,
2013-05-17 21:52:00,52.0,37.0,-100.00,NNW,335,12.0,18.0,56,-99.99,,,-99.99,,2013-05-18 04:52:00,
2013-05-17 22:02:00,52.0,37.0,-100.00,NNW,335,12.0,18.0,56,-99.99,,,-99.99,,2013-05-18 05:02:00,
2013-05-17 22:12:00,51.0,37.0,-100.00,NNW,330,9.0,15.0,58,-99.99,,,-99.99,,2013-05-18 05:12:00,
2013-05-17 22:22:00,51.0,37.0,-100.00,NNW,330,10.0,16.0,59,-99.99,,,-99.99,,2013-05-18 05:22:00,
2013-05-17 22:31:00,51.0,37.0,-100.00,NNW,330,10.0,16.0,59,-99.99,,,-99.99,,2013-05-18 05:31:00,
2013-05-17 22:42:00,49.0,38.0,-100.00,NW,305,4.0,14.0,65,-99.99,,,-99.99,,2013-05-18 05:42:00,
2013-05-17 22:51:00,49.0,38.0,-100.00,NW,320,5.0,12.0,67,-99.99,,,-99.99,,2013-05-18 05:51:00,
2013-05-17 23:02:00,49.0,38.0,-100.00,NW,320,5.0,12.0,67,-99.99,,,-99.99,,2013-05-18 06:02:00,
2013-05-17 23:11:00,47.0,39.0,-100.00,NW,305,6.0,11.0,72,-99.99,,,-99.99,,2013-05-18 06:11:00,
2013-05-17 23:22:00,47.0,40.0,-100.00,WNW,295,6.0,11.0,76,-99.99,,,-99.99,,2013-05-18 06:22:00,
2013-05-17 23:31:00,47.0,40.0,-100.00,WNW,295,6.0,11.0,76,-99.99,,,-99.99,,2013-05-18 06:31:00,
2013-05-17 23:42:00,46.0,40.0,-100.00,West,275,5.0,11.0,78,-99.99,,,-99.99,,2013-05-18 06:42:00,
2013-05-17 23:51:00,46.0,39.0,-100.00,West,260,2.0,9.0,78,-99.99,,,-99.99,,2013-05-18 06:51:00,